This is the latest recevied weather packets stored in our database for station/object KD5FHA. If no packets are shown the sender has not sent any weather packets the latest 10 day(s).
| Time | Temp. | Humidity | Pressure | Rain* | Wind** | Luminosity | Snow |
|---|---|---|---|---|---|---|---|
| 1787851431 | 36.67° C | 45% | 1016.7 hPa | 0 mm | - | 765 W/m² | - |
| 1787851126 | 36.67° C | 48% | 1016.7 hPa | 0 mm | - | 752 W/m² | - |
| 1787850822 | 35.56° C | 49% | 1016.8 hPa | 0 mm | - | 753 W/m² | - |
| 1787850518 | 35° C | 51% | 1016.8 hPa | 0 mm | - | 745 W/m² | - |
| 1787850213 | 36.11° C | 49% | 1016.8 hPa | 0 mm | - | 729 W/m² | - |
| 1787849907 | 35.56° C | 49% | 1016.9 hPa | 0 mm | - | 724 W/m² | - |
| 1787849602 | 36.11° C | 49% | 1016.7 hPa | 0 mm | - | 718 W/m² | - |
| 1787849301 | 35° C | 52% | 1016.8 hPa | 0 mm | - | 698 W/m² | - |
| 1787849001 | 34.44° C | 52% | 1017 hPa | 0 mm | - | 670 W/m² | - |
| 1787848695 | 35.56° C | 51% | 1017 hPa | 0 mm | - | 670 W/m² | - |
| 1787848390 | 35° C | 52% | 1017.1 hPa | 0 mm | - | 654 W/m² | - |
| 1787848084 | 34.44° C | 53% | 1017.1 hPa | 0 mm | - | 653 W/m² | - |
| 1787847784 | 35° C | 54% | 1017.2 hPa | 0 mm | - | 636 W/m² | - |
| 1787847480 | 35° C | 53% | 1017 hPa | 0 mm | - | 319 W/m² | - |
| 1787847175 | 33.89° C | 55% | 1017.1 hPa | 0 mm | - | 268 W/m² | - |
| 1787846872 | 33.89° C | 55% | 1017.1 hPa | 0 mm | - | 570 W/m² | - |
| 1787846565 | 33.89° C | 56% | 1017 hPa | 0 mm | - | 150 W/m² | - |
| 1787846261 | 33.89° C | 56% | 1017.1 hPa | 0 mm | - | 110 W/m² | - |
| 1787845957 | 33.89° C | 58% | 1017.2 hPa | 0 mm | - | 110 W/m² | - |
| 1787845653 | 33.89° C | 58% | 1017.1 hPa | 0 mm | - | 103 W/m² | - |
| 1787845352 | 33.89° C | 58% | 1016.9 hPa | 0 mm | - | 274 W/m² | - |
| 1787845048 | 33.33° C | 59% | 1016.8 hPa | 0 mm | - | 180 W/m² | - |
| 1787844743 | 32.78° C | 60% | 1017.1 hPa | 0 mm | - | 296 W/m² | - |
| 1787844442 | 32.78° C | 61% | 1016.7 hPa | 0 mm | - | 422 W/m² | - |
| 1787844137 | 32.22° C | 61% | 1016.7 hPa | 0 mm | - | 121 W/m² | - |
* Rain latest hour (hover to see other rain measurements)
** Current wind speed in m/s (hover to see current wind gust speed)